Regional Weather Roundup
Issued by NWS Northern Indiana

Home | Current Version | Previous Version | Graphics & Text | Print | Product List | Glossary On
Versions: 1 2 3 4 5 6 7 8 9 10 11 12 13 14 15 16 17 18 19 20 21 22 23 24 25 26 27 28 29 30 31 32 33 34 35 36 37 38 39 40 41 42 43 44 45 46 47 48 49 50
463
ASUS43 KIWX 020910
RWRIWX

KIWX WEATHER ROUNDUP
NATIONAL WEATHER SERVICE NORTHERN INDIANA
500 AM EDT MON MAY 02 2016

NOTE: "FAIR" INDICATES FEW OR NO CLOUDS BELOW 12,000 FEET WITH NO
SIGNIFICANT WEATHER AND/OR OBSTRUCTIONS TO VISIBILITY.

* THESE STATIONS ARE NOT UNDER NWS QUALITY CONTROL. THEY ALSO MAY NOT
  REPORT WEATHER SUCH AS PRECIPITATION OR FOG.

INZ001>027-021000-
NORTHERN INDIANA

CITY           SKY/WX    TMP DP  RH WIND       PRES   REMARKS
GARY*          CLOUDY    46  46 100 N12       30.02R
VALPARAISO     CLOUDY    46  44  93 N7        29.98S
MICHIGAN CITY* CLOUDY    45  45 100 N8        29.99S
LAPORTE*       CLOUDY    47  47 100 NE9       29.98S
KNOX*          CLOUDY    46  45  93 N9        29.97R
SOUTH BEND     CLOUDY    45  43  93 N9        29.98S
GOSHEN         CLOUDY    47  44  90 N7        29.96R
MONTICELLO*    DRIZZLE   51  47  87 N12       29.94R
LOGANSPORT*    CLOUDY    52  50  93 NE3       29.94S
ROCHESTER*     CLOUDY    52  52 100 N7        29.94S FOG
WARSAW*        CLOUDY    48  46  93 N3        29.95R
ANGOLA*        CLOUDY    45  34  65 N6        29.94R
FORT WAYNE     CLOUDY    50  47  89 NE7       29.93R
HUNTINGTON*    CLOUDY   N/A N/A N/A CALM      29.94R
PERU/GRISSOM   CLOUDY    52  52 100 NE5       29.92S
MARION*        CLOUDY    52  50  94 CALM      29.94R

$$
INZ028>050-021000-
CENTRAL INDIANA

CITY           SKY/WX    TMP DP  RH WIND       PRES   REMARKS
LAFAYETTE      CLOUDY    49  49 100 W10       29.95S FOG
KOKOMO*        CLOUDY    54  48  82 E5        29.93S
MUNCIE*        CLOUDY    55  52  89 CALM      29.91R
INDIANAPOLIS   CLOUDY    56  53  90 NW8       29.92S

$$
MIZ043>046-050>051-056>058-064>065-071>073-077>080-021000-
SOUTHWEST LOWER MICHIGAN

CITY           SKY/WX    TMP DP  RH WIND       PRES   REMARKS
BATTLE CREEK   CLOUDY    43  41  93 N9        29.98R
BENTON HARBOR  CLOUDY    45  42  89 NE5       30.00S
COLDWATER*     CLOUDY    45  44  97 N8        29.96R
HILLSDALE*     CLOUDY    44  44 100 N7        29.92F
HOLLAND        CLOUDY   N/A N/A N/A N6        30.03R
GRAND RAPIDS   CLOUDY    44  40  85 N9        30.02R
KALAMAZOO      CLOUDY    44  40  85 N9        29.99R
STURGIS*       CLOUDY    44  42  95 N8        29.96R
THREE RIVERS*  CLOUDY    44  43  95 N5        29.98R

$$
OHZ001>008-015>018-024>025-021000-
NORTHWEST OHIO

CITY           SKY/WX    TMP DP  RH WIND       PRES   REMARKS
WAUSEON*         N/A     46 N/A N/A NE10      29.91F
DEFIANCE       CLOUDY    48  45  89 NE7       29.92F
FINDLAY        CLOUDY    50  45  83 NE8       29.90R
TOLEDO EXPRESS CLOUDY    48  47  96 NE8       29.93F
TOLEDO METCALF CLOUDY    49  46  90 NE5       29.94R
LIMA           PTCLDY    49  48  97 N7        29.88F

$$
AND FOR LAKE MICHIGAN COASTAL AND OPEN LAKE BUOY OBSERVATIONS

STATION/POSITION TEMP    WIND        PRES    VSBY  WAVE
                 AIR SEA DIR/SP/G                  HT/PER
                 (F)     (DEG/KT/KT) (MB)    (MI)  (FT/S)
CALUMET HARBOR    44     360/ 10/ 17 1015.7R
MICHIGAN CITY     45     360/ 17/ 19   N/A
BURNS HARBOR      45      30/ 19/ 22 1015.9S
SAINT JOSEPH      45      10/  5/ 11 1016.3S
SOUTH LAKE BUOY   42 40   10/  8/ 10 1017.5R         2/ 5
4 MI NW BRIDGMAN  45 47                N/A           3/ 4

$$
&&




USA.gov is the U.S. government's official web portal to all federal, state and local government web resources and services.